This is the latest recevied weather packets stored in our database for station/object N9ALD. If no packets are shown the sender has not sent any weather packets the latest 1 day(s).
| Time | Temp. | Humidity | Pressure | Rain* | Wind** | Luminosity | Snow |
|---|---|---|---|---|---|---|---|
| 1778034212 | 8.33° C | 98% | 1005 hPa | 0 mm | - | 0 W/m² | - |
| 1778033910 | 8.33° C | 98% | 1005.1 hPa | 0 mm | - | 0 W/m² | - |
| 1778033606 | 8.33° C | 98% | 1005.3 hPa | 1.27 mm | - | 0 W/m² | - |
| 1778033303 | 8.33° C | 98% | 1005.4 hPa | 6.1 mm | - | 0 W/m² | - |
| 1778032699 | 8.33° C | 98% | 1005.8 hPa | 14.99 mm | - | 0 W/m² | - |
| 1778032396 | 8.33° C | 98% | 1006.6 hPa | 8.89 mm | - | 0 W/m² | - |
| 1778031789 | 8.33° C | 98% | 1005.3 hPa | 6.1 mm | - | 0 W/m² | - |
| 1778031486 | 8.33° C | 98% | 1004.9 hPa | 7.87 mm | - | 0 W/m² | - |
| 1778030879 | 8.33° C | 98% | 1004.7 hPa | 1.27 mm | - | 0 W/m² | - |
| 1778030274 | 8.33° C | 98% | 1004.7 hPa | 3.05 mm | - | 0 W/m² | - |
| 1778029970 | 8.33° C | 98% | 1004.9 hPa | 3.05 mm | - | 0 W/m² | - |
| 1778029668 | 8.33° C | 98% | 1004.6 hPa | 0 mm | - | 0 W/m² | - |
| 1778029063 | 8.33° C | 97% | 1004.7 hPa | 6.1 mm | - | 0 W/m² | - |
| 1778028455 | 8.33° C | 97% | 1005 hPa | 1.78 mm | - | 0 W/m² | - |
| 1778028153 | 8.33° C | 97% | 1005.5 hPa | 1.78 mm | - | 0 W/m² | - |
| 1778026938 | 8.33° C | 97% | 1004.8 hPa | 3.05 mm | - | 5 W/m² | - |
| 1778026634 | 8.33° C | 97% | 1004.9 hPa | 3.05 mm | - | 6 W/m² | - |
| 1778025121 | 8.33° C | 97% | 1004.7 hPa | 0 mm | - | 8 W/m² | - |
| 1778024211 | 8.33° C | 97% | 1004.9 hPa | 1.78 mm | - | 21 W/m² | - |
| 1778023304 | 8.33° C | 97% | 1005.4 hPa | 1.78 mm | - | 19 W/m² | - |
| 1778023000 | 8.33° C | 97% | 1005.4 hPa | 0 mm | - | 16 W/m² | - |
| 1778022397 | 8.33° C | 97% | 1005.6 hPa | 4.32 mm | - | 18 W/m² | - |
| 1778020880 | 8.33° C | 97% | 1005.8 hPa | 3.05 mm | - | 19 W/m² | - |
| 1778017850 | 8.89° C | 96% | 1005.6 hPa | 4.83 mm | - | 42 W/m² | - |
| 1778014820 | 10.56° C | 95% | 1005.1 hPa | 0 mm | - | 19 W/m² | - |
* Rain latest hour (hover to see other rain measurements)
** Current wind speed in m/s (hover to see current wind gust speed)